Regional Weather Roundup
Issued by NWS Jackson, KY

Home | Current Version | Previous Version | Text Only | Print | Product List | Glossary On
Versions: 1 2 3 4 5 6 7 8 9 10 11 12 13 14 15 16 17 18 19 20 21 22 23 24 25 26 27 28 29 30 31 32 33 34 35 36 37 38 39 40 41 42 43 44 45 46 47 48 49
000
ASUS43 KJKL 020410
RWRJKL

EAST KENTUCKY HOURLY WEATHER ROUNDUP
NATIONAL WEATHER SERVICE JACKSON KY
1100 PM EST SUN MAR 01 2015

NOTE: "FAIR" INDICATES FEW OR NO CLOUDS BELOW 12,000 FEET WITH
NO SIGNIFICANT WEATHER AND/OR OBSTRUCTIONS TO VISIBILITY.

* THESE REPORTS ARE NOT UNDER NWS QUALITY CONTROL AND MAY NOT
  REPORT WEATHER SUCH AS PRECIPITATION AND FOG.

KYZ079-080-083-085-087-088-110-112-115-119-120-020500
...EASTERN KENTUCKY...

CITY           SKY/WX    TMP DP  RH WIND       PRES   REMARKS
JACKSON        FOG       45  44  97 SW6       30.25S VSB 1/2
LONDON         CLOUDY    47  42  83 SW6       30.27S
SOMERSET*      DRZL/FOG  43  43 100 CALM      30.30S VSB 3/4
MONTICELLO*    FOG       49  49 100 SW9       30.32R VSB 1
MIDDLESBORO*   FOG       35  35 100 CALM      30.30F VSB 1/4
HAZARD APT*    CLOUDY    46  46 100 SW5       30.26S FOG
BLACK MTN*       N/A     37  37 100 SW5         N/A  WCI  34
PIKEVILLE APT* CLOUDY    45  43  93 SW3       30.23F
BIG SANDY*     CLOUDY    45  45  99 CALM      30.24S
MOREHEAD APT*  LGT RAIN  37  36  93 W6G13     30.30S VSB 1/4 WCI  33
$$

KYZ035-036-041-042-044-050-067-078-099-020500
...CENTRAL KENTUCKY...

CITY           SKY/WX    TMP DP  RH WIND       PRES   REMARKS
MT STERLING*   DRIZZLE   36  36 100 NW5       30.30S WCI  32
FLEMING/MASON* CLOUDY    34  34 100 W8        30.30R FOG     WCI  27
DANVILLE*      LGT RAIN  36  36 100 CALM      30.32R
RICHMOND*      CLOUDY    37  36  93 NW6       30.30R WCI  33
LEXINGTON      FOG       35  35 100 W5        30.30S VSB 1/2 WCI  31
FRANKFORT      CLOUDY    34  32  92 NW7       30.31R FOG     WCI  28
$$

KYZ091>093-OHZ055-061-077-WVZ005-015-034-035-042-020500
...SOUTHERN OHIO/WEST VIRGINIA...

CITY           SKY/WX    TMP DP  RH WIND       PRES   REMARKS
COVINGTON      CLOUDY    33  29  85 W9        30.31R WCI  25
COLUMBUS       CLOUDY    31  30  96 NW12      30.26R WCI  22
DAYTON         CLOUDY    29  24  82 W12       30.29R WCI  19
WILMINGTON     CLOUDY    31  27  85 NW10      30.27S WCI  22
HUNTINGTON     LGT RAIN  38  38 100 NW8       30.26R VSB 3/4 WCI  32
CHARLESTON     LGT RAIN  43  42  97 W7        30.24S VSB 1
PINEVILLE*     CLOUDY    37  37 100 MISG      30.30R FOG
BECKLEY        FOG       42  40  92 W9        30.21F VSB 1/2
BLUEFIELD      CLOUDY    45  42  89 W16G22    30.23F FOG
$$

VAZ002-007-008-TNZ017-027-036-066-071-020500
...SOUTHWEST VIRGINIA/EAST TENNESSEE...

CITY           SKY/WX    TMP DP  RH WIND       PRES   REMARKS
WISE*          FOG       43  43 100 SW12      30.26S VSB<1/4
JONESVILLE*    FOG       36  36 100 CALM      30.32F VSB 1/4
ABINGDON*      FOG       42  42  99 CALM      30.28F VSB 1/4
BRISTOL        CLOUDY    43  42  97 CALM      30.31F
KNOXVILLE      CLOUDY    44  43  96 S3        30.32F FOG
OAK RIDGE      CLOUDY    45  43  93 VRB3      30.34S FOG
CROSSVILLE     CLOUDY    45  44  97 SW3       30.31R FOG
NASHVILLE      LGT RAIN  46  46 100 NW12G20   30.34R VSB 1/2
$$

...KEY TO REMARKS...
VSB - VISIBILITY IN MILES
WCI - WIND CHILL INDEX
HX  - HEAT INDEX

$$



USA.gov is the U.S. government's official web portal to all federal, state and local government web resources and services.